Location: Navarre
(52.9016°N, 113.4144°W)
Time: 14:20:31
(UTC+00:00)

Envisat - Pass Details

Date: 04 December 2021
Orbit: 764 x 766 km, 98.2° (Epoch: 28 January)

Event Time Altitude Azimuth Distance (km) Brightness Sun altitude
Rises 13:49:46 0° 9° (N) 3,249 6.2 -13.9°
Reaches altitude 10° 13:52:15 10° 1° (N) 2,318 5.3 -13.5°
Maximum altitude 13:56:49 34° 298° (WNW) 1,241 3.6 -12.9°
Drops below altitude 10° 14:01:21 10° 234° (SW) 2,303 5.2 -12.3°
Sets 14:03:49 0° 225° (SW) 3,225 6.0 -11.9°
